"read_dt","SO2 (ppb)","flags","PMT voltage (V)","lamp voltage (V)","lamp intensity (Hz)","internal temp (C)","react chamber temp (C)","sample flow (l/min)","pres (mmHg)","SO2 bkg (ppb)","SO2 coefficient"
2014-10-11 00:00:00,2022E-3,5C000000,-0724,0827,12218,026.7,045.4,0.481,741.4,01.18,0.508
2014-10-11 00:01:00,2062E-3,5C000000,-0724,0828,12429,026.7,045.4,0.480,741.5,01.18,0.508
2014-10-11 00:02:00,1984E-3,5C000000,-0724,0826,12096,026.7,045.4,0.480,741.4,01.18,0.508
2014-10-11 00:03:00,1994E-3,5C000000,-0724,0827,12328,026.7,045.4,0.481,741.4,01.18,0.508
2014-10-11 00:04:00,2015E-3,5C000000,-0724,0826,12232,026.7,045.4,0.480,741.4,01.18,0.508
2014-10-11 00:05:00,2003E-3,5C000000,-0724,0827,12322,026.6,045.4,0.480,741.4,01.18,0.508
2014-10-11 00:06:00,2012E-3,5C000000,-0724,0827,12127,026.6,045.4,0.481,741.4,01.18,0.508
2014-10-11 00:07:00,2074E-3,5C000000,-0724,0827,12188,026.6,045.4,0.480,741.4,01.18,0.508
2014-10-11 00:08:00,1927E-3,5C000000,-0724,0826,12176,026.6,045.4,0.480,741.4,01.18,0.508
2014-10-11 00:09:00,1945E-3,5C000000,-0724,0826,12110,026.6,045.4,0.481,741.4,01.18,0.508
2014-10-11 00:10:00,1971E-3,5C000000,-0724,0828,12304,026.6,045.5,0.480,741.4,01.18,0.508
2014-10-11 00:11:00,1947E-3,5C000000,-0724,0827,12305,026.7,045.4,0.480,741.5,01.18,0.508
2014-10-11 00:12:00,2003E-3,5C000000,-0724,0826,12351,026.7,045.4,0.481,741.4,01.18,0.508
2014-10-11 00:13:00,2040E-3,5C000000,-0724,0826,12178,026.7,045.4,0.480,741.4,01.18,0.508
2014-10-11 00:14:00,1889E-3,5C000000,-0724,0826,12111,026.7,045.4,0.480,741.4,01.18,0.508
2014-10-11 00:15:00,2013E-3,5C000000,-0724,0826,12220,026.7,045.4,0.481,741.4,01.18,0.508
2014-10-11 00:16:00,1884E-3,5C000000,-0724,0827,12214,026.7,045.4,0.480,741.4,01.18,0.508
2014-10-11 00:17:00,1983E-3,5C000000,-0724,0826,12266,026.7,045.4,0.480,741.4,01.18,0.508
2014-10-11 00:18:00,2031E-3,5C000000,-0724,0828,12348,026.7,045.4,0.481,741.4,01.18,0.508
2014-10-11 00:19:00,1857E-3,5C000000,-0724,0828,12264,026.7,045.4,0.480,741.5,01.18,0.508
2014-10-11 00:20:00,2040E-3,5C000000,-0724,0826,12147,026.7,045.4,0.480,741.4,01.18,0.508
2014-10-11 00:21:00,1972E-3,5C000000,-0724,0827,12073,026.7,045.4,0.480,741.4,01.18,0.508
2014-10-11 00:22:00,1839E-3,5C000000,-0724,0826,12277,026.7,045.4,0.480,741.4,01.18,0.508
2014-10-11 00:23:00,2072E-3,5C000000,-0724,0827,12118,026.7,045.4,0.480,741.3,01.18,0.508
2014-10-11 00:24:00,2053E-3,5C000000,-0724,0828,12295,026.7,045.4,0.480,741.3,01.18,0.508
2014-10-11 00:25:00,1971E-3,5C000000,-0724,0827,12092,026.7,045.4,0.480,741.4,01.18,0.508
2014-10-11 00:26:00,1964E-3,5C000000,-0724,0826,12337,026.7,045.4,0.480,741.4,01.18,0.508
2014-10-11 00:27:00,2063E-3,5C000000,-0724,0827,12234,026.7,045.4,0.480,741.5,01.18,0.508
2014-10-11 00:28:00,1917E-3,5C000000,-0724,0827,12349,026.7,045.4,0.481,741.4,01.18,0.508
2014-10-11 00:29:00,1970E-3,5C000000,-0724,0827,11973,026.6,045.4,0.480,741.5,01.18,0.508
2014-10-11 00:30:00,2026E-3,5C000000,-0724,0827,12365,026.6,045.4,0.480,741.5,01.18,0.508
2014-10-11 00:31:00,1934E-3,5C000000,-0724,0827,12256,026.6,045.4,0.481,741.5,01.18,0.508
2014-10-11 00:32:00,1970E-3,5C000000,-0724,0826,12075,026.6,045.4,0.480,741.5,01.18,0.508
2014-10-11 00:33:00,2024E-3,5C000000,-0724,0827,12225,026.6,045.4,0.481,741.5,01.18,0.508
2014-10-11 00:34:00,2098E-3,5C000000,-0724,0827,12314,026.6,045.4,0.481,741.4,01.18,0.508
2014-10-11 00:35:00,1998E-3,5C000000,-0724,0827,12382,026.6,045.4,0.480,741.4,01.18,0.508
2014-10-11 00:36:00,1933E-3,5C000000,-0724,0827,12133,026.6,045.4,0.481,741.4,01.18,0.508
2014-10-11 00:37:00,1933E-3,5C000000,-0724,0826,12259,026.6,045.4,0.481,741.4,01.18,0.508
2014-10-11 00:38:00,1963E-3,5C000000,-0724,0826,12221,026.7,045.4,0.480,741.4,01.18,0.508
2014-10-11 00:39:00,2041E-3,5C000000,-0724,0827,12257,026.6,045.4,0.480,741.4,01.18,0.508
2014-10-11 00:40:00,1946E-3,5C000000,-0724,0826,12240,026.6,045.4,0.481,741.4,01.18,0.508
2014-10-11 00:41:00,1980E-3,5C000000,-0724,0826,12167,026.6,045.4,0.480,741.5,01.18,0.508
2014-10-11 00:42:00,1857E-3,5C000000,-0724,0827,12269,026.6,045.4,0.480,741.4,01.18,0.508
2014-10-11 00:43:00,1909E-3,5C000000,-0724,0827,12308,026.7,045.4,0.481,741.4,01.18,0.508
2014-10-11 00:44:00,1885E-3,5C000000,-0724,0826,12266,026.6,045.4,0.480,741.4,01.18,0.508
2014-10-11 00:45:00,1832E-3,5C000000,-0724,0827,12356,026.6,045.4,0.480,741.5,01.18,0.508
2014-10-11 00:46:00,1904E-3,5C000000,-0724,0827,12314,026.6,045.4,0.481,741.5,01.18,0.508
2014-10-11 00:47:00,2077E-3,5C000000,-0724,0825,12215,026.6,045.4,0.480,741.5,01.18,0.508
2014-10-11 00:48:00,2050E-3,5C000000,-0724,0826,12367,026.6,045.4,0.480,741.5,01.18,0.508
2014-10-11 00:49:00,1997E-3,5C000000,-0724,0827,12285,026.6,045.4,0.481,741.5,01.18,0.508
2014-10-11 00:50:00,2037E-3,5C000000,-0724,0827,12359,026.6,045.4,0.480,741.5,01.18,0.508
2014-10-11 00:51:00,1983E-3,5C000000,-0724,0827,12169,026.6,045.4,0.480,741.5,01.18,0.508
2014-10-11 00:52:00,2082E-3,5C000000,-0724,0826,12188,026.6,045.4,0.481,741.5,01.18,0.508
2014-10-11 00:53:00,1839E-3,5C000000,-0724,0827,12276,026.7,045.4,0.480,741.4,01.18,0.508
2014-10-11 00:54:00,1990E-3,5C000000,-0724,0828,12321,026.7,045.4,0.480,741.5,01.18,0.508
2014-10-11 00:55:00,1793E-3,5C000000,-0724,0827,11987,026.7,045.4,0.481,741.4,01.18,0.508
2014-10-11 00:56:00,1926E-3,5C000000,-0724,0827,12090,026.7,045.4,0.480,741.5,01.18,0.508
2014-10-11 00:57:00,1954E-3,5C000000,-0724,0826,12243,026.7,045.4,0.480,741.5,01.18,0.508
2014-10-11 00:58:00,1924E-3,5C000000,-0724,0828,12215,026.7,045.4,0.481,741.5,01.18,0.508
2014-10-11 00:59:00,1952E-3,5C000000,-0724,0826,12206,026.7,045.4,0.480,741.6,01.18,0.508
2014-10-11 01:00:00,1965E-3,5C000000,-0724,0828,12208,026.7,045.4,0.480,741.6,01.18,0.508
2014-10-11 01:01:00,2015E-3,5C000000,-0724,0827,12190,026.7,045.4,0.481,741.6,01.18,0.508
2014-10-11 01:02:00,1968E-3,5C000000,-0724,0827,12357,026.6,045.5,0.480,741.6,01.18,0.508
2014-10-11 01:03:00,1937E-3,5C000000,-0724,0827,12288,026.6,045.4,0.480,741.6,01.18,0.508
2014-10-11 01:04:00,1935E-3,5C000000,-0724,0826,12439,026.6,045.4,0.481,741.5,01.18,0.508
2014-10-11 01:05:00,1906E-3,5C000000,-0724,0827,12003,026.7,045.4,0.480,741.5,01.18,0.508
2014-10-11 01:06:00,1944E-3,5C000000,-0724,0827,12271,026.7,045.4,0.480,741.6,01.18,0.508
2014-10-11 01:07:00,2057E-3,5C000000,-0724,0827,12330,026.7,045.4,0.481,741.5,01.18,0.508
2014-10-11 01:08:00,1971E-3,5C000000,-0724,0827,12070,026.7,045.4,0.480,741.6,01.18,0.508
2014-10-11 01:09:00,1970E-3,5C000000,-0724,0827,12354,026.6,045.4,0.480,741.5,01.18,0.508
2014-10-11 01:10:00,1942E-3,5C000000,-0724,0827,12134,026.6,045.4,0.481,741.5,01.18,0.508
2014-10-11 01:11:00,2034E-3,5C000000,-0724,0827,12171,026.6,045.4,0.480,741.6,01.18,0.508
2014-10-11 01:12:00,1928E-3,5C000000,-0724,0827,12276,026.7,045.4,0.480,741.5,01.18,0.508
2014-10-11 01:13:00,1944E-3,5C000000,-0724,0827,12173,026.7,045.4,0.481,741.5,01.18,0.508
2014-10-11 01:14:00,1863E-3,5C000000,-0724,0827,12384,026.7,045.4,0.480,741.5,01.18,0.508
2014-10-11 01:15:00,1941E-3,5C000000,-0724,0827,12194,026.6,045.4,0.480,741.5,01.18,0.508
2014-10-11 01:16:00,1998E-3,5C000000,-0724,0826,12176,026.6,045.4,0.481,741.5,01.18,0.508
2014-10-11 01:17:00,1943E-3,5C000000,-0724,0827,12186,026.6,045.4,0.480,741.5,01.18,0.508
2014-10-11 01:18:00,2041E-3,5C000000,-0724,0826,12222,026.7,045.4,0.480,741.5,01.18,0.508
2014-10-11 01:19:00,1885E-3,5C000000,-0724,0826,12372,026.6,045.4,0.481,741.5,01.18,0.508
2014-10-11 01:20:00,2041E-3,5C000000,-0724,0826,12078,026.6,045.4,0.480,741.5,01.18,0.508
2014-10-11 01:21:00,1996E-3,5C000000,-0724,0827,12188,026.6,045.4,0.480,741.5,01.18,0.508
2014-10-11 01:22:00,2011E-3,5C000000,-0724,0826,12208,026.6,045.4,0.481,741.5,01.18,0.508
2014-10-11 01:23:00,1911E-3,5C000000,-0724,0827,12356,026.6,045.4,0.480,741.5,01.18,0.508
2014-10-11 01:24:00,2106E-3,5C000000,-0724,0827,12202,026.6,045.4,0.480,741.5,01.18,0.508
2014-10-11 01:25:00,1978E-3,5C000000,-0724,0828,12309,026.6,045.4,0.481,741.5,01.18,0.508
2014-10-11 01:26:00,1957E-3,5C000000,-0724,0827,12103,026.6,045.4,0.480,741.4,01.18,0.508
2014-10-11 01:27:00,2030E-3,5C000000,-0724,0827,12159,026.6,045.4,0.480,741.5,01.18,0.508
2014-10-11 01:28:00,1988E-3,5C000000,-0724,0827,12027,026.6,045.4,0.481,741.4,01.18,0.508
2014-10-11 01:29:00,1988E-3,5C000000,-0724,0826,12268,026.6,045.4,0.480,741.4,01.18,0.508
2014-10-11 01:30:00,2022E-3,5C000000,-0724,0827,11990,026.7,045.4,0.480,741.4,01.18,0.508
2014-10-11 01:31:00,1965E-3,5C000000,-0724,0827,12238,026.6,045.4,0.481,741.4,01.18,0.508
2014-10-11 01:32:00,1842E-3,5C000000,-0724,0826,12061,026.6,045.4,0.480,741.3,01.18,0.508
2014-10-11 01:33:00,1995E-3,5C000000,-0724,0826,12194,026.6,045.4,0.480,741.4,01.18,0.508
2014-10-11 01:34:00,1921E-3,5C000000,-0724,0826,12064,026.6,045.4,0.481,741.3,01.18,0.508
2014-10-11 01:35:00,2074E-3,5C000000,-0724,0827,12163,026.7,045.4,0.480,741.4,01.18,0.508
2014-10-11 01:36:00,1958E-3,5C000000,-0724,0827,12329,026.7,045.4,0.480,741.4,01.18,0.508
2014-10-11 01:37:00,2008E-3,5C000000,-0724,0828,12115,026.7,045.4,0.481,741.3,01.18,0.508
2014-10-11 01:38:00,2095E-3,5C000000,-0724,0827,12239,026.7,045.5,0.480,741.4,01.18,0.508
2014-10-11 01:39:00,1968E-3,5C000000,-0724,0827,12222,026.7,045.4,0.481,741.4,01.18,0.508
2014-10-11 01:40:00,1879E-3,5C000000,-0724,0827,12396,026.7,045.4,0.480,741.4,01.18,0.508
2014-10-11 01:41:00,1940E-3,5C000000,-0724,0826,12146,026.7,045.4,0.480,741.4,01.18,0.508
2014-10-11 01:42:00,2072E-3,5C000000,-0724,0826,12230,026.7,045.4,0.481,741.4,01.18,0.508
2014-10-11 01:43:00,1953E-3,5C000000,-0724,0826,12228,026.6,045.4,0.480,741.4,01.18,0.508
2014-10-11 01:44:00,2064E-3,5C000000,-0724,0827,12267,026.6,045.4,0.480,741.4,01.18,0.508
2014-10-11 01:45:00,2072E-3,5C000000,-0724,0827,12175,026.6,045.4,0.481,741.4,01.18,0.508
2014-10-11 01:46:00,1885E-3,5C000000,-0724,0827,12243,026.6,045.4,0.480,741.4,01.18,0.508
2014-10-11 01:47:00,1892E-3,5C000000,-0724,0826,12274,026.6,045.4,0.480,741.4,01.18,0.508
2014-10-11 01:48:00,2063E-3,5C000000,-0724,0826,12167,026.6,045.4,0.480,741.3,01.18,0.508
2014-10-11 01:49:00,1989E-3,5C000000,-0724,0826,12257,026.6,045.4,0.480,741.3,01.18,0.508
2014-10-11 01:50:00,1870E-3,5C000000,-0724,0825,12410,026.7,045.4,0.480,741.4,01.18,0.508
2014-10-11 01:51:00,1961E-3,5C000000,-0724,0827,12223,026.7,045.5,0.480,741.3,01.18,0.508
2014-10-11 01:52:00,2020E-3,5C000000,-0724,0827,12258,026.7,045.4,0.481,741.3,01.18,0.508
2014-10-11 01:53:00,2070E-3,5C000000,-0724,0826,12208,026.7,045.4,0.480,741.4,01.18,0.508
2014-10-11 01:54:00,1869E-3,5C000000,-0724,0827,12398,026.7,045.4,0.480,741.4,01.18,0.508
2014-10-11 01:55:00,1934E-3,5C000000,-0724,0827,12065,026.7,045.4,0.481,741.4,01.18,0.508
2014-10-11 01:56:00,1944E-3,5C000000,-0724,0827,12292,026.7,045.4,0.480,741.4,01.18,0.508
2014-10-11 01:57:00,2075E-3,5C000000,-0724,0827,12155,026.7,045.4,0.480,741.4,01.18,0.508
2014-10-11 01:58:00,1928E-3,5C000000,-0724,0826,12199,026.7,045.4,0.481,741.4,01.18,0.508
2014-10-11 01:59:00,2112E-3,5C000000,-0724,0826,12293,026.7,045.4,0.480,741.4,01.18,0.508
2014-10-11 02:00:00,1972E-3,5C000000,-0724,0828,12282,026.7,045.4,0.480,741.4,01.18,0.508
2014-10-11 02:01:00,2033E-3,5C000000,-0724,0827,12012,026.7,045.4,0.481,741.4,01.18,0.508
2014-10-11 02:02:00,2023E-3,5C000000,-0724,0827,12257,026.6,045.4,0.480,741.4,01.18,0.508
2014-10-11 02:03:00,2091E-3,5C000000,-0724,0827,11887,026.6,045.4,0.480,741.4,01.18,0.508
2014-10-11 02:04:00,1941E-3,5C000000,-0724,0827,12325,026.6,045.4,0.481,741.3,01.18,0.508
2014-10-11 02:05:00,2045E-3,5C000000,-0724,0827,12261,026.6,045.4,0.480,741.3,01.18,0.508
2014-10-11 02:06:00,1997E-3,5C000000,-0724,0827,12167,026.7,045.4,0.480,741.3,01.18,0.508
2014-10-11 02:07:00,2103E-3,5C000000,-0724,0827,12160,026.7,045.5,0.481,741.3,01.18,0.508
2014-10-11 02:08:00,2044E-3,5C000000,-0724,0826,12210,026.7,045.4,0.480,741.3,01.18,0.508
2014-10-11 02:09:00,1991E-3,5C000000,-0724,0826,12278,026.7,045.4,0.480,741.3,01.18,0.508
2014-10-11 02:10:00,1868E-3,5C000000,-0724,0827,12271,026.7,045.4,0.481,741.3,01.18,0.508
2014-10-11 02:11:00,2091E-3,5C000000,-0724,0827,12227,026.7,045.4,0.480,741.3,01.18,0.508
2014-10-11 02:12:00,1964E-3,5C000000,-0724,0826,12106,026.7,045.4,0.480,741.3,01.18,0.508
2014-10-11 02:13:00,1970E-3,5C000000,-0724,0827,12215,026.7,045.4,0.480,741.3,01.18,0.508
2014-10-11 02:14:00,2012E-3,5C000000,-0724,0826,12316,026.6,045.4,0.480,741.3,01.18,0.508
2014-10-11 02:15:00,2041E-3,5C000000,-0724,0826,12198,026.6,045.4,0.480,741.3,01.18,0.508
2014-10-11 02:16:00,2072E-3,5C000000,-0724,0827,12126,026.6,045.4,0.480,741.3,01.18,0.508
2014-10-11 02:17:00,2069E-3,5C000000,-0724,0826,12236,026.6,045.4,0.480,741.3,01.18,0.508
2014-10-11 02:18:00,1973E-3,5C000000,-0724,0827,12130,026.6,045.4,0.480,741.2,01.18,0.508
2014-10-11 02:19:00,2097E-3,5C000000,-0724,0827,12352,026.6,045.4,0.480,741.2,01.18,0.508
2014-10-11 02:20:00,1972E-3,5C000000,-0724,0827,12243,026.6,045.4,0.481,741.2,01.18,0.508
2014-10-11 02:21:00,1968E-3,5C000000,-0724,0827,12138,026.6,045.4,0.480,741.2,01.18,0.508
2014-10-11 02:22:00,2058E-3,5C000000,-0724,0826,12249,026.6,045.4,0.480,741.2,01.18,0.508
2014-10-11 02:23:00,2058E-3,5C000000,-0724,0828,12369,026.7,045.4,0.481,741.2,01.18,0.508
2014-10-11 02:24:00,2047E-3,5C000000,-0724,0826,11936,026.7,045.4,0.480,741.2,01.18,0.508
2014-10-11 02:25:00,2031E-3,5C000000,-0724,0826,12199,026.7,045.4,0.480,741.2,01.18,0.508
2014-10-11 02:26:00,2057E-3,5C000000,-0724,0827,12042,026.7,045.4,0.481,741.1,01.18,0.508
2014-10-11 02:27:00,1992E-3,5C000000,-0724,0826,12136,026.7,045.4,0.480,741.2,01.18,0.508
2014-10-11 02:28:00,2062E-3,5C000000,-0724,0826,12236,026.7,045.4,0.480,741.2,01.18,0.508
2014-10-11 02:29:00,1984E-3,5C000000,-0724,0827,12091,026.7,045.4,0.480,741.2,01.18,0.508
2014-10-11 02:30:00,2067E-3,5C000000,-0724,0826,12140,026.7,045.5,0.480,741.2,01.18,0.508
2014-10-11 02:31:00,2053E-3,5C000000,-0724,0827,12078,026.7,045.4,0.480,741.2,01.18,0.508
2014-10-11 02:32:00,1956E-3,5C000000,-0724,0827,12359,026.7,045.4,0.480,741.1,01.18,0.508
2014-10-11 02:33:00,2072E-3,5C000000,-0724,0827,12050,026.6,045.4,0.481,741.1,01.18,0.508
2014-10-11 02:34:00,1933E-3,5C000000,-0724,0827,12307,026.7,045.4,0.480,741.1,01.18,0.508
2014-10-11 02:35:00,1906E-3,5C000000,-0724,0826,12289,026.7,045.4,0.480,741.1,01.18,0.508
2014-10-11 02:36:00,1977E-3,5C000000,-0724,0827,12155,026.7,045.4,0.481,741.1,01.18,0.508
2014-10-11 02:37:00,1924E-3,5C000000,-0724,0827,12119,026.7,045.4,0.480,741.1,01.18,0.508
2014-10-11 02:38:00,2075E-3,5C000000,-0724,0827,12453,026.7,045.4,0.480,741.1,01.18,0.508
2014-10-11 02:39:00,2150E-3,5C000000,-0724,0827,11985,026.7,045.4,0.480,741.0,01.18,0.508
2014-10-11 02:40:00,2045E-3,5C000000,-0724,0827,12350,026.7,045.4,0.480,741.0,01.18,0.508
2014-10-11 02:41:00,2033E-3,5C000000,-0724,0827,12311,026.7,045.4,0.480,741.1,01.18,0.508
2014-10-11 02:42:00,2067E-3,5C000000,-0724,0826,12347,026.7,045.4,0.480,741.0,01.18,0.508
2014-10-11 02:43:00,1956E-3,5C000000,-0724,0828,12449,026.7,045.4,0.480,741.1,01.18,0.508
2014-10-11 02:44:00,1954E-3,5C000000,-0724,0827,12258,026.7,045.4,0.480,741.1,01.18,0.508
2014-10-11 02:45:00,1943E-3,5C000000,-0724,0826,12115,026.6,045.4,0.480,741.1,01.18,0.508
2014-10-11 02:46:00,2060E-3,5C000000,-0724,0827,12123,026.6,045.4,0.480,741.1,01.18,0.508
2014-10-11 02:47:00,2003E-3,5C000000,-0724,0827,12066,026.7,045.4,0.480,741.1,01.18,0.508
2014-10-11 02:48:00,2002E-3,5C000000,-0724,0826,12362,026.7,045.4,0.480,741.1,01.18,0.508
2014-10-11 02:49:00,2047E-3,5C000000,-0724,0826,12102,026.7,045.4,0.481,741.1,01.18,0.508
2014-10-11 02:50:00,1968E-3,5C000000,-0724,0826,12256,026.7,045.4,0.480,741.1,01.18,0.508
2014-10-11 02:51:00,1858E-3,5C000000,-0724,0827,12217,026.7,045.4,0.480,741.1,01.18,0.508
2014-10-11 02:52:00,2023E-3,5C000000,-0724,0826,12306,026.7,045.4,0.480,741.0,01.18,0.508
2014-10-11 02:53:00,2007E-3,5C000000,-0724,0826,12280,026.6,045.4,0.480,741.0,01.18,0.508
2014-10-11 02:54:00,2110E-3,5C000000,-0724,0826,12170,026.6,045.5,0.480,741.0,01.18,0.508
2014-10-11 02:55:00,1871E-3,5C000000,-0724,0827,12408,026.6,045.4,0.480,741.0,01.18,0.508
2014-10-11 02:56:00,1915E-3,5C000000,-0724,0827,12160,026.6,045.4,0.480,741.0,01.18,0.508
2014-10-11 02:57:00,2052E-3,5C000000,-0724,0826,12161,026.6,045.4,0.480,741.1,01.18,0.508
2014-10-11 02:58:00,1949E-3,5C000000,-0724,0827,12356,026.6,045.4,0.480,741.1,01.18,0.508
2014-10-11 02:59:00,2108E-3,5C000000,-0724,0825,12271,026.6,045.4,0.481,741.0,01.18,0.508
2014-10-11 03:00:00,1946E-3,5C000000,-0724,0828,12283,026.6,045.4,0.480,741.1,01.18,0.508
2014-10-11 03:01:00,1919E-3,5C000000,-0724,0827,12257,026.6,045.4,0.480,741.0,01.18,0.508
2014-10-11 03:02:00,2049E-3,5C000000,-0724,0827,12323,026.6,045.4,0.480,741.0,01.18,0.508
2014-10-11 03:03:00,1989E-3,5C000000,-0724,0826,12387,026.6,045.4,0.481,741.0,01.18,0.508
2014-10-11 03:04:00,1890E-3,5C000000,-0724,0827,12193,026.7,045.4,0.480,741.0,01.18,0.508
2014-10-11 03:05:00,2052E-3,5C000000,-0724,0827,12271,026.6,045.4,0.480,741.0,01.18,0.508
2014-10-11 03:06:00,2040E-3,5C000000,-0724,0827,12225,026.7,045.4,0.481,741.0,01.18,0.508
2014-10-11 03:07:00,1976E-3,5C000000,-0724,0827,12259,026.7,045.4,0.480,741.0,01.18,0.508
2014-10-11 03:08:00,1943E-3,5C000000,-0724,0827,12294,026.6,045.4,0.480,741.0,01.18,0.508
2014-10-11 03:09:00,1901E-3,5C000000,-0724,0826,12352,026.6,045.4,0.480,741.0,01.18,0.508
2014-10-11 03:10:00,1945E-3,5C000000,-0724,0827,12292,026.6,045.4,0.480,741.0,01.18,0.508
2014-10-11 03:11:00,1931E-3,5C000000,-0724,0826,12124,026.6,045.4,0.480,741.0,01.18,0.508
2014-10-11 03:12:00,1956E-3,5C000000,-0724,0826,12261,026.6,045.4,0.480,741.0,01.18,0.508
2014-10-11 03:13:00,1913E-3,5C000000,-0724,0827,12197,026.6,045.4,0.481,741.0,01.18,0.508
2014-10-11 03:14:00,1918E-3,5C000000,-0724,0826,12374,026.6,045.4,0.480,741.0,01.18,0.508
2014-10-11 03:15:00,1974E-3,5C000000,-0724,0826,12102,026.6,045.4,0.480,741.0,01.18,0.508
2014-10-11 03:16:00,1927E-3,5C000000,-0724,0826,12173,026.6,045.4,0.480,741.0,01.18,0.508
2014-10-11 03:17:00,1903E-3,5C000000,-0724,0826,12205,026.6,045.4,0.480,741.0,01.18,0.508
2014-10-11 03:18:00,1934E-3,5C000000,-0724,0826,11974,026.6,045.4,0.480,741.0,01.18,0.508
2014-10-11 03:19:00,2060E-3,5C000000,-0724,0827,12399,026.6,045.4,0.480,741.0,01.18,0.508
2014-10-11 03:20:00,1944E-3,5C000000,-0724,0827,12231,026.6,045.4,0.481,740.9,01.18,0.508
2014-10-11 03:21:00,1993E-3,5C000000,-0724,0827,12366,026.6,045.4,0.480,740.9,01.18,0.508
2014-10-11 03:22:00,2043E-3,5C000000,-0724,0826,12320,026.6,045.4,0.480,740.9,01.18,0.508
2014-10-11 03:23:00,1987E-3,5C000000,-0724,0826,12210,026.6,045.4,0.480,740.9,01.18,0.508
2014-10-11 03:24:00,1917E-3,5C000000,-0724,0827,12313,026.6,045.4,0.480,740.8,01.18,0.508
2014-10-11 03:25:00,1914E-3,5C000000,-0724,0827,12242,026.6,045.4,0.480,740.9,01.18,0.508
2014-10-11 03:26:00,1918E-3,5C000000,-0724,0826,12346,026.6,045.4,0.480,740.8,01.18,0.508
2014-10-11 03:27:00,1931E-3,5C000000,-0724,0827,12373,026.6,045.4,0.480,740.7,01.18,0.508
2014-10-11 03:28:00,1993E-3,5C000000,-0724,0826,11927,026.6,045.4,0.480,740.6,01.18,0.508
2014-10-11 03:29:00,1935E-3,5C000000,-0724,0826,12388,026.6,045.4,0.480,740.6,01.18,0.508
2014-10-11 03:30:00,2003E-3,5C000000,-0724,0826,12350,026.5,045.4,0.480,740.6,01.18,0.508
2014-10-11 03:31:00,1981E-3,5C000000,-0724,0826,12237,026.5,045.4,0.480,740.6,01.18,0.508
2014-10-11 03:32:00,2097E-3,5C000000,-0724,0826,12195,026.5,045.4,0.480,740.6,01.18,0.508
2014-10-11 03:33:00,2005E-3,5C000000,-0724,0826,12303,026.5,045.4,0.481,740.6,01.18,0.508
2014-10-11 03:34:00,1881E-3,5C000000,-0724,0827,12314,026.4,045.4,0.480,740.6,01.18,0.508
2014-10-11 03:35:00,1944E-3,5C000000,-0724,0825,12269,026.4,045.4,0.480,740.6,01.18,0.508
2014-10-11 03:36:00,2194E-3,5C000000,-0724,0827,12266,026.4,045.4,0.481,740.6,01.18,0.508
2014-10-11 03:37:00,1970E-3,5C000000,-0724,0826,12165,026.4,045.4,0.481,740.6,01.18,0.508
2014-10-11 03:38:00,2028E-3,5C000000,-0724,0827,12359,026.3,045.4,0.480,740.6,01.18,0.508
2014-10-11 03:39:00,2057E-3,5C000000,-0724,0827,12307,026.3,045.4,0.481,740.6,01.18,0.508
2014-10-11 03:40:00,2014E-3,5C000000,-0724,0827,12209,026.3,045.4,0.481,740.6,01.18,0.508
2014-10-11 03:41:00,2105E-3,5C000000,-0724,0826,12295,026.2,045.4,0.481,740.6,01.18,0.508
2014-10-11 03:42:00,1996E-3,5C000000,-0724,0826,12216,026.2,045.4,0.481,740.6,01.18,0.508
2014-10-11 03:43:00,2016E-3,5C000000,-0724,0827,12353,026.2,045.4,0.481,740.6,01.18,0.508
2014-10-11 03:44:00,1986E-3,5C000000,-0724,0826,12435,026.2,045.4,0.481,740.6,01.18,0.508
2014-10-11 03:45:00,1979E-3,5C000000,-0724,0827,12278,026.2,045.4,0.481,740.6,01.18,0.508
2014-10-11 03:46:00,1960E-3,5C000000,-0724,0826,12378,026.2,045.4,0.480,740.6,01.18,0.508
2014-10-11 03:47:00,1882E-3,5C000000,-0724,0827,12099,026.2,045.4,0.480,740.6,01.18,0.508
2014-10-11 03:48:00,1893E-3,5C000000,-0724,0827,12260,026.2,045.4,0.481,740.6,01.18,0.508
2014-10-11 03:49:00,1896E-3,5C000000,-0724,0827,12300,026.3,045.4,0.481,740.6,01.18,0.508
2014-10-11 03:50:00,1984E-3,5C000000,-0724,0826,12303,026.3,045.4,0.481,740.6,01.18,0.508
2014-10-11 03:51:00,1999E-3,5C000000,-0724,0827,12134,026.4,045.4,0.481,740.6,01.18,0.508
2014-10-11 03:52:00,1924E-3,5C000000,-0724,0827,12079,026.4,045.4,0.481,740.6,01.18,0.508
2014-10-11 03:53:00,2288E-3,5C000000,-0724,0826,12313,026.5,045.4,0.481,740.6,01.18,0.508
2014-10-11 03:54:00,2127E-3,5C000000,-0724,0826,12171,026.5,045.4,0.481,740.6,01.18,0.508
2014-10-11 03:55:00,2188E-3,5C000000,-0724,0827,12331,026.5,045.4,0.481,740.6,01.18,0.508
2014-10-11 03:56:00,2001E-3,5C000000,-0724,0827,12355,026.5,045.4,0.481,740.6,01.18,0.508
2014-10-11 03:57:00,1940E-3,5C000000,-0724,0827,12260,026.5,045.4,0.480,740.6,01.18,0.508
2014-10-11 03:58:00,2071E-3,5C000000,-0724,0826,12269,026.5,045.4,0.480,740.6,01.18,0.508
2014-10-11 03:59:00,2089E-3,5C000000,-0724,0826,12204,026.5,045.4,0.480,740.6,01.18,0.508
2014-10-11 04:00:00,2009E-3,5C000000,-0724,0827,12381,026.5,045.4,0.480,740.6,01.18,0.508
2014-10-11 04:01:00,1895E-3,5C000000,-0724,0827,12212,026.5,045.5,0.481,740.6,01.18,0.508
2014-10-11 04:02:00,1861E-3,5C000000,-0724,0826,12252,026.5,045.4,0.480,740.6,01.18,0.508
2014-10-11 04:03:00,1881E-3,5C000000,-0724,0827,12338,026.5,045.4,0.480,740.6,01.18,0.508
2014-10-11 04:04:00,2018E-3,5C000000,-0724,0826,11892,026.5,045.4,0.480,740.6,01.18,0.508
2014-10-11 04:05:00,2041E-3,5C000000,-0724,0827,12329,026.5,045.4,0.480,740.6,01.18,0.508
2014-10-11 04:06:00,1883E-3,5C000000,-0724,0827,12238,026.5,045.4,0.480,740.6,01.18,0.508
2014-10-11 04:07:00,2038E-3,5C000000,-0724,0827,12338,026.5,045.4,0.480,740.6,01.18,0.508
2014-10-11 04:08:00,1983E-3,5C000000,-0724,0827,12218,026.5,045.4,0.480,740.6,01.18,0.508
2014-10-11 04:09:00,1954E-3,5C000000,-0724,0827,12350,026.5,045.4,0.480,740.6,01.18,0.508
2014-10-11 04:10:00,1928E-3,5C000000,-0724,0827,12379,026.5,045.4,0.480,740.6,01.18,0.508
2014-10-11 04:11:00,1980E-3,5C000000,-0724,0827,12140,026.6,045.4,0.480,740.6,01.18,0.508
2014-10-11 04:12:00,1943E-3,5C000000,-0724,0827,12248,026.5,045.4,0.480,740.6,01.18,0.508
2014-10-11 04:13:00,1930E-3,5C000000,-0724,0827,12122,026.6,045.4,0.480,740.6,01.18,0.508
2014-10-11 04:14:00,1977E-3,5C000000,-0724,0827,12137,026.5,045.4,0.480,740.6,01.18,0.508
2014-10-11 04:15:00,1988E-3,5C000000,-0724,0826,12197,026.5,045.4,0.480,740.6,01.18,0.508
2014-10-11 04:16:00,1884E-3,5C000000,-0724,0826,12101,026.5,045.4,0.480,740.6,01.18,0.508
2014-10-11 04:17:00,2075E-3,5C000000,-0724,0827,12184,026.5,045.4,0.480,740.6,01.18,0.508
2014-10-11 04:18:00,2118E-3,5C000000,-0724,0827,12294,026.6,045.4,0.480,740.6,01.18,0.508
2014-10-11 04:19:00,2008E-3,5C000000,-0724,0827,12346,026.6,045.4,0.480,740.6,01.18,0.508
2014-10-11 04:20:00,1956E-3,5C000000,-0724,0826,12228,026.6,045.4,0.480,740.6,01.18,0.508